,,PA_Meas_PMT16A,,PR_Meas_QMR101_102,,RH_Meas_QMH101,,SR_Meas_QMS101,,TA_Meas_QMH101,,GenWind,,GenWind,
time,status,PA,status,PR,status,RH,status,SR,status,TA,status,DirAvg,status,SpdAvg,
2014-06-21, 06:45:04,VALID,918.791,VALID,0,VALID,83.4002,VALID,30.191,VALID,19.9773,VALID,348,VALID,0.482812,
2014-06-21, 06:46:04,VALID,918.821,VALID,0,VALID,83.4078,VALID,30.6207,VALID,19.9758,VALID,351,VALID,0.479297,
2014-06-21, 06:47:04,VALID,918.831,VALID,0,VALID,83.0038,VALID,31.0505,VALID,19.9953,VALID,352,VALID,0.403516,
2014-06-21, 06:48:04,VALID,918.83,VALID,0,VALID,83.5374,VALID,31.4803,VALID,19.9578,VALID,352,VALID,0.814844,
2014-06-21, 06:49:04,VALID,918.834,VALID,0,VALID,83.9186,VALID,32.0175,VALID,19.8783,VALID,354,VALID,0.628906,
2014-06-21, 06:50:04,VALID,918.867,VALID,0,VALID,83.9109,VALID,32.4472,VALID,19.8993,VALID,354,VALID,0.522656,
2014-06-21, 06:51:04,VALID,918.874,VALID,0,VALID,83.6899,VALID,33.4142,VALID,19.9578,VALID,351,VALID,0.583594,
2014-06-21, 06:52:04,VALID,918.89,VALID,0,VALID,83.3011,VALID,41.7946,VALID,19.9968,VALID,354,VALID,0.596484,
2014-06-21, 06:53:04,VALID,918.919,VALID,0,VALID,83.423,VALID,55.9768,VALID,20.0163,VALID,354,VALID,0.55,
2014-06-21, 06:54:04,VALID,918.944,VALID,0,VALID,83.3544,VALID,64.3572,VALID,20.0553,VALID,354,VALID,0.478516,
2014-06-21, 06:55:04,VALID,918.914,VALID,0,VALID,82.8284,VALID,66.721,VALID,20.1334,VALID,20,VALID,0.970312,
2014-06-21, 06:56:04,VALID,918.952,VALID,0,VALID,82.5159,VALID,68.8698,VALID,20.2309,VALID,28,VALID,0.5375,
2014-06-21, 06:57:04,VALID,918.996,VALID,0,VALID,82.3253,VALID,70.6963,VALID,20.3089,VALID,356,VALID,0.185937,
2014-06-21, 06:58:04,VALID,918.989,VALID,0,VALID,81.8755,VALID,72.9525,VALID,20.4259,VALID,356,VALID,0,
2014-06-21, 06:59:04,VALID,919.03,VALID,0,VALID,81.2732,VALID,74.9939,VALID,20.4845,VALID,356,VALID,0,
2014-06-21, 07:00:04,VALID,919.035,VALID,0,VALID,81.4714,VALID,77.1427,VALID,20.5625,VALID,356,VALID,0.0570313,
2014-06-21, 07:01:04,VALID,919.022,VALID,0,VALID,81.8602,VALID,78.9692,VALID,20.5625,VALID,356,VALID,0.441016,
2014-06-21, 07:02:04,VALID,919.067,VALID,0,VALID,81.6849,VALID,81.0106,VALID,20.543,VALID,356,VALID,0.647266,
2014-06-21, 07:03:04,VALID,919.085,VALID,0,VALID,81.5248,VALID,81.6553,VALID,20.5625,VALID,356,VALID,0.528906,
2014-06-21, 07:04:04,VALID,919.097,VALID,0,VALID,81.5477,VALID,85.4157,VALID,20.543,VALID,357,VALID,0.728906,
2014-06-21, 07:05:04,VALID,919.118,VALID,0,VALID,82.028,VALID,93.4738,VALID,20.5219,VALID,357,VALID,0.423438,
2014-06-21, 07:06:04,VALID,919.128,VALID,0,VALID,81.2732,VALID,99.8128,VALID,20.5609,VALID,357,VALID,0.159766,
2014-06-21, 07:07:04,VALID,919.127,VALID,0,VALID,80.2746,VALID,102.069,VALID,20.7381,VALID,357,VALID,0,
2014-06-21, 07:08:04,VALID,919.143,VALID,0,VALID,80.0992,VALID,105.507,VALID,20.8925,VALID,357,VALID,0.0117188,
2014-06-21, 07:09:04,VALID,919.145,VALID,0,VALID,78.5822,VALID,108.408,VALID,21.0096,VALID,357,VALID,0,
2014-06-21, 07:10:04,VALID,919.186,VALID,0,VALID,78.3154,VALID,111.309,VALID,21.1657,VALID,357,VALID,0,
2014-06-21, 07:11:04,VALID,919.194,VALID,0,VALID,77.8275,VALID,115.069,VALID,21.2827,VALID,357,VALID,0,
2014-06-21, 07:12:04,VALID,919.208,VALID,0,VALID,77.2176,VALID,117.97,VALID,21.4193,VALID,357,VALID,0,
2014-06-21, 07:13:04,VALID,919.228,VALID,0,VALID,76.3942,VALID,120.656,VALID,21.6339,VALID,357,VALID,0,
2014-06-21, 07:14:04,VALID,919.205,VALID,0,VALID,77.1795,VALID,122.375,VALID,21.8876,VALID,357,VALID,0,
2014-06-21, 07:15:04,VALID,919.207,VALID,0,VALID,75.2965,VALID,122.053,VALID,22.1217,VALID,357,VALID,0,
2014-06-21, 07:16:04,VALID,919.208,VALID,0,VALID,72.8799,VALID,121.623,VALID,22.3364,VALID,357,VALID,0,
2014-06-21, 07:17:04,VALID,919.201,VALID,0,VALID,72.2319,VALID,121.623,VALID,22.4925,VALID,357,VALID,0.189063,
2014-06-21, 07:18:04,VALID,919.206,VALID,0,VALID,71.4695,VALID,118.078,VALID,22.5901,VALID,357,VALID,0.19375,
2014-06-21, 07:19:04,VALID,919.23,VALID,0,VALID,72.1023,VALID,115.177,VALID,22.6079,VALID,357,VALID,0.869531,
2014-06-21, 07:20:04,VALID,919.235,VALID,0,VALID,72.4758,VALID,122.483,VALID,22.6292,VALID,357,VALID,0.563281,
2014-06-21, 07:21:04,VALID,919.22,VALID,0,VALID,73.4897,VALID,132.475,VALID,22.6274,VALID,357,VALID,0.206641,
2014-06-21, 07:22:04,VALID,919.251,VALID,0,VALID,73.7489,VALID,139.673,VALID,22.6877,VALID,357,VALID,0.00117188,
2014-06-21, 07:23:04,VALID,919.23,VALID,0,VALID,72.9027,VALID,144.293,VALID,22.5884,VALID,357,VALID,0.420312,
2014-06-21, 07:24:04,VALID,919.245,VALID,0,VALID,72.1404,VALID,146.013,VALID,22.4925,VALID,357,VALID,0.0761719,
2014-06-21, 07:25:04,VALID,919.214,VALID,0,VALID,73.6956,VALID,141.607,VALID,22.4713,VALID,357,VALID,0,
2014-06-21, 07:26:04,VALID,919.237,VALID,0,VALID,72.2929,VALID,138.169,VALID,22.4518,VALID,357,VALID,0.579687,
2014-06-21, 07:27:04,VALID,919.259,VALID,0,VALID,76.44,VALID,141.822,VALID,22.4908,VALID,357,VALID,0.0648438,
2014-06-21, 07:28:04,VALID,919.247,VALID,0,VALID,74.3969,VALID,150.418,VALID,22.5901,VALID,356,VALID,0,
2014-06-21, 07:29:04,VALID,919.27,VALID,0,VALID,73.2229,VALID,164.17,VALID,22.6682,VALID,357,VALID,0.205078,
2014-06-21, 07:30:04,VALID,919.276,VALID,0,VALID,73.2305,VALID,166.104,VALID,22.7072,VALID,357,VALID,0.214844,
2014-06-21, 07:31:04,VALID,919.308,VALID,0,VALID,73.3525,VALID,167.716,VALID,22.7853,VALID,357,VALID,0.486328,
2014-06-21, 07:32:04,VALID,919.31,VALID,0,VALID,75.0144,VALID,171.369,VALID,22.8812,VALID,357,VALID,0.385156,
2014-06-21, 07:33:04,VALID,919.354,VALID,0,VALID,74.031,VALID,174.377,VALID,22.961,VALID,357,VALID,0.555078,
2014-06-21, 07:34:04,VALID,919.372,VALID,0,VALID,73.4059,VALID,176.633,VALID,23.0391,VALID,357,VALID,0.474609,
2014-06-21, 07:35:04,VALID,919.397,VALID,0,VALID,70.9511,VALID,179.212,VALID,23.0373,VALID,357,VALID,0.26875,
2014-06-21, 07:36:04,VALID,919.413,VALID,0,VALID,70.3108,VALID,182.435,VALID,23.1562,VALID,357,VALID,0.418359,
2014-06-21, 07:37:04,VALID,919.393,VALID,0,VALID,73.1543,VALID,185.443,VALID,23.2538,VALID,357,VALID,0.58125,
2014-06-21, 07:38:04,VALID,919.374,VALID,0,VALID,71.0655,VALID,188.774,VALID,23.213,VALID,11,VALID,0.349609,
2014-06-21, 07:39:04,VALID,919.386,VALID,0,VALID,72.5902,VALID,191.46,VALID,23.252,VALID,11,VALID,0.573828,
2014-06-21, 07:40:04,VALID,919.409,VALID,0,VALID,71.1722,VALID,194.361,VALID,23.3106,VALID,5,VALID,1.06172,
2014-06-21, 07:41:04,VALID,919.414,VALID,0,VALID,70.974,VALID,197.799,VALID,23.3319,VALID,342,VALID,1.03281,
2014-06-21, 07:42:04,VALID,919.424,VALID,0,VALID,70.4709,VALID,201.667,VALID,23.3106,VALID,342,VALID,0.630078,
2014-06-21, 07:43:04,VALID,919.43,VALID,0,VALID,69.3807,VALID,204.998,VALID,23.3123,VALID,344,VALID,1.16992,
2014-06-21, 07:44:04,VALID,919.465,VALID,0,VALID,69.9143,VALID,208.328,VALID,23.2325,VALID,347,VALID,0.654297,
2014-06-21, 07:45:04,VALID,919.423,VALID,0,VALID,71.2256,VALID,211.444,VALID,23.1722,VALID,1,VALID,1.24688,
2014-06-21, 07:46:04,VALID,919.426,VALID,0,VALID,71.3552,VALID,213.378,VALID,23.0959,VALID,332,VALID,1.09531,
2014-06-21, 07:47:04,VALID,919.43,VALID,0,VALID,72.5978,VALID,217.139,VALID,22.9983,VALID,334,VALID,0.306641,
2014-06-21, 07:48:04,VALID,919.443,VALID,0,VALID,72.7579,VALID,221.114,VALID,23.0356,VALID,335,VALID,0.684766,
2014-06-21, 07:49:04,VALID,919.47,VALID,0,VALID,73.1467,VALID,224.874,VALID,23.0746,VALID,14,VALID,0.844922,
2014-06-21, 07:50:04,VALID,919.508,VALID,0,VALID,72.8951,VALID,228.42,VALID,23.1722,VALID,4,VALID,0.953906,
2014-06-21, 07:51:04,VALID,919.532,VALID,0,VALID,72.4529,VALID,232.073,VALID,23.1722,VALID,6,VALID,1.14609,
2014-06-21, 07:52:04,VALID,919.513,VALID,0,VALID,71.096,VALID,234.974,VALID,23.0959,VALID,10,VALID,1.3543,
2014-06-21, 07:53:04,VALID,919.519,VALID,0,VALID,71.7897,VALID,238.09,VALID,22.9575,VALID,359,VALID,1.84258,
2014-06-21, 07:54:04,VALID,919.521,VALID,0,VALID,73.2458,VALID,241.957,VALID,22.7996,VALID,8,VALID,1.41367,
2014-06-21, 07:55:04,VALID,919.552,VALID,0,VALID,73.4745,VALID,244.644,VALID,22.7641,VALID,8,VALID,1.46211,
2014-06-21, 07:56:04,VALID,919.576,VALID,0,VALID,72.1556,VALID,247.437,VALID,22.7233,VALID,15,VALID,1.0582,
2014-06-21, 07:57:04,VALID,919.618,VALID,0,VALID,73.4135,VALID,251.52,VALID,22.7836,VALID,15,VALID,0.610156,
2014-06-21, 07:58:04,VALID,919.591,VALID,0,VALID,72.4148,VALID,253.776,VALID,22.8812,VALID,15,VALID,1.35039,
2014-06-21, 07:59:04,VALID,919.637,VALID,0,VALID,72.1785,VALID,256.999,VALID,22.9202,VALID,350,VALID,0.912109,
2014-06-21, 08:00:04,VALID,919.642,VALID,0,VALID,72.9103,VALID,260.222,VALID,23.016,VALID,4,VALID,0.807422,
2014-06-21, 08:01:04,VALID,919.681,VALID,0,VALID,73.4821,VALID,263.553,VALID,23.1739,VALID,4,VALID,0.745703,
2014-06-21, 08:02:04,VALID,919.68,VALID,0,VALID,72.6283,VALID,266.132,VALID,23.3691,VALID,4,VALID,0.505859,
2014-06-21, 08:03:04,VALID,919.687,VALID,0,VALID,71.5534,VALID,269.462,VALID,23.5626,VALID,4,VALID,0.894922,
2014-06-21, 08:04:04,VALID,919.673,VALID,0,VALID,70.852,VALID,273.545,VALID,23.6424,VALID,29,VALID,1.29805,
2014-06-21, 08:05:04,VALID,919.701,VALID,0,VALID,69.9372,VALID,276.876,VALID,23.5448,VALID,32,VALID,1.04102,
2014-06-21, 08:06:04,VALID,919.748,VALID,0,VALID,70.0058,VALID,280.314,VALID,23.465,VALID,27,VALID,1.08555,
2014-06-21, 08:07:04,VALID,919.759,VALID,0,VALID,71.6601,VALID,282.785,VALID,23.4259,VALID,26,VALID,0.785937,
2014-06-21, 08:08:04,VALID,919.824,VALID,0,VALID,71.7287,VALID,286.008,VALID,23.4472,VALID,26,VALID,0.351563,
2014-06-21, 08:09:04,VALID,919.805,VALID,0,VALID,70.6843,VALID,289.554,VALID,23.5839,VALID,39,VALID,1.22539,
2014-06-21, 08:10:04,VALID,919.797,VALID,0,VALID,69.8152,VALID,292.992,VALID,23.5253,VALID,44,VALID,0.641797,
2014-06-21, 08:11:04,VALID,919.899,VALID,0,VALID,69.8076,VALID,296.108,VALID,23.5821,VALID,44,VALID,0.695313,
2014-06-21, 08:12:04,VALID,919.93,VALID,0,VALID,70.913,VALID,299.976,VALID,23.6602,VALID,44,VALID,1.12695,
2014-06-21, 08:13:04,VALID,919.915,VALID,0,VALID,71.378,VALID,302.662,VALID,23.7187,VALID,15,VALID,0.987891,
2014-06-21, 08:14:04,VALID,919.899,VALID,0,VALID,70.8673,VALID,305.455,VALID,23.7755,VALID,15,VALID,1.29531,
2014-06-21, 08:15:04,VALID,919.916,VALID,0,VALID,70.1812,VALID,308.786,VALID,23.8749,VALID,15,VALID,1.13398,
2014-06-21, 08:16:04,VALID,919.941,VALID,0,VALID,69.7161,VALID,312.009,VALID,23.8749,VALID,4,VALID,0.912109,
2014-06-21, 08:17:04,VALID,919.948,VALID,0,VALID,68.3668,VALID,316.092,VALID,23.8944,VALID,354,VALID,0.803125,
2014-06-21, 08:18:04,VALID,919.956,VALID,0,VALID,69.5332,VALID,319.208,VALID,23.9335,VALID,354,VALID,0.749219,
2014-06-21, 08:19:04,VALID,919.966,VALID,0,VALID,68.2677,VALID,321.786,VALID,24.0115,VALID,360,VALID,1.26719,
2014-06-21, 08:20:04,VALID,919.967,VALID,0,VALID,68.4202,VALID,325.762,VALID,23.8944,VALID,7,VALID,1.16172,
2014-06-21, 08:21:04,VALID,919.984,VALID,0,VALID,69.9753,VALID,329.307,VALID,23.8163,VALID,16,VALID,1.53789,
2014-06-21, 08:22:04,VALID,919.995,VALID,0,VALID,70.2727,VALID,332.53,VALID,23.8358,VALID,16,VALID,1.08672,
2014-06-21, 08:23:04,VALID,919.979,VALID,0,VALID,68.2296,VALID,335.754,VALID,23.8145,VALID,16,VALID,1.48438,
2014-06-21, 08:24:04,VALID,920.013,VALID,0,VALID,68.7403,VALID,338.762,VALID,23.7382,VALID,16,VALID,1.11367,
2014-06-21, 08:25:04,VALID,919.989,VALID,0,VALID,70.7072,VALID,342.415,VALID,23.6992,VALID,16,VALID,0.979297,
2014-06-21, 08:26:04,VALID,920.031,VALID,0,VALID,70.0287,VALID,345.101,VALID,23.7187,VALID,338,VALID,1.28086,
2014-06-21, 08:27:04,VALID,920.029,VALID,0,VALID,68.3363,VALID,347.68,VALID,23.6797,VALID,15,VALID,0.969141,
2014-06-21, 08:28:04,VALID,920.027,VALID,0,VALID,70.0211,VALID,351.87,VALID,23.6797,VALID,14,VALID,0.83125,
2014-06-21, 08:29:04,VALID,920.025,VALID,0,VALID,70.8825,VALID,353.911,VALID,23.6974,VALID,13,VALID,1.62188,
2014-06-21, 08:30:04,VALID,920.042,VALID,0,VALID,70.7682,VALID,358.209,VALID,23.7755,VALID,14,VALID,0.815234,
2014-06-21, 08:31:04,VALID,920.047,VALID,0,VALID,70.0592,VALID,361.969,VALID,23.9512,VALID,14,VALID,0.744531,
2014-06-21, 08:32:04,VALID,920.015,VALID,0,VALID,67.9399,VALID,366.159,VALID,24.1464,VALID,356,VALID,0.560156,
2014-06-21, 08:33:04,VALID,919.982,VALID,0,VALID,68.3439,VALID,367.664,VALID,24.1854,VALID,353,VALID,0.455859,
2014-06-21, 08:34:04,VALID,919.993,VALID,0,VALID,70.3489,VALID,371.209,VALID,24.1659,VALID,8,VALID,1.52344,
2014-06-21, 08:35:04,VALID,920.022,VALID,0,VALID,67.9094,VALID,374.97,VALID,24.1464,VALID,12,VALID,1.75742,
2014-06-21, 08:36:04,VALID,919.999,VALID,0,VALID,67.6502,VALID,378.193,VALID,24.0683,VALID,16,VALID,1.79297,
2014-06-21, 08:37:04,VALID,919.948,VALID,0,VALID,68.8852,VALID,382.168,VALID,24.0488,VALID,16,VALID,1.12148,
2014-06-21, 08:38:04,VALID,919.962,VALID,0,VALID,69.5103,VALID,384.639,VALID,24.2245,VALID,16,VALID,1.12891,
2014-06-21, 08:39:04,VALID,919.954,VALID,0,VALID,68.687,VALID,387.863,VALID,24.3611,VALID,16,VALID,0.5125,
2014-06-21, 08:40:04,VALID,919.935,VALID,0,VALID,66.9107,VALID,391.945,VALID,24.5368,VALID,16,VALID,0.471484,
2014-06-21, 08:41:04,VALID,919.958,VALID,0,VALID,67.147,VALID,395.276,VALID,24.5173,VALID,16,VALID,0.703125,
2014-06-21, 08:42:04,VALID,919.925,VALID,0,VALID,67.9856,VALID,397.747,VALID,24.5564,VALID,16,VALID,1.54766,
2014-06-21, 08:43:04,VALID,919.943,VALID,0,VALID,66.2856,VALID,400.97,VALID,24.5954,VALID,321,VALID,1.22969,
2014-06-21, 08:44:04,VALID,919.975,VALID,0,VALID,66.1789,VALID,403.549,VALID,24.4392,VALID,307,VALID,1.08477,
2014-06-21, 08:45:04,VALID,919.949,VALID,0,VALID,67.0022,VALID,406.88,VALID,24.2049,VALID,306,VALID,0.690234,
2014-06-21, 08:46:04,VALID,919.935,VALID,0,VALID,70.6996,VALID,409.781,VALID,24.2245,VALID,10,VALID,1.07617,
2014-06-21, 08:47:04,VALID,919.911,VALID,0,VALID,69.1215,VALID,413.111,VALID,24.3416,VALID,18,VALID,1.96914,
2014-06-21, 08:48:04,VALID,919.954,VALID,0,VALID,66.3847,VALID,416.549,VALID,24.4783,VALID,330,VALID,0.848828,
2014-06-21, 08:49:04,VALID,919.933,VALID,0,VALID,68.1152,VALID,419.558,VALID,24.4978,VALID,283,VALID,0.586719,
2014-06-21, 08:50:04,VALID,919.928,VALID,0,VALID,65.6147,VALID,423.318,VALID,24.5759,VALID,331,VALID,0.545703,
2014-06-21, 08:51:04,VALID,919.901,VALID,0,VALID,65.7596,VALID,426.219,VALID,24.6149,VALID,329,VALID,0.729297,
2014-06-21, 08:52:04,VALID,919.921,VALID,0,VALID,67.2385,VALID,429.55,VALID,24.7126,VALID,335,VALID,1.11875,
2014-06-21, 08:53:04,VALID,919.947,VALID,0,VALID,65.4699,VALID,433.203,VALID,24.654,VALID,256,VALID,0.820313,
2014-06-21, 08:54:04,VALID,919.937,VALID,0,VALID,67.0022,VALID,435.029,VALID,24.7321,VALID,271,VALID,0.288672,
2014-06-21, 08:55:04,VALID,919.922,VALID,0,VALID,65.2412,VALID,438.36,VALID,24.8297,VALID,21,VALID,2.33516,
2014-06-21, 08:56:04,VALID,919.907,VALID,0,VALID,66.7811,VALID,442.55,VALID,24.8102,VALID,360,VALID,1.02656,
2014-06-21, 08:57:04,VALID,919.925,VALID,0,VALID,66.7201,VALID,444.484,VALID,24.8474,VALID,14,VALID,0.630469,
2014-06-21, 08:58:04,VALID,919.963,VALID,0,VALID,65.6224,VALID,446.848,VALID,24.9859,VALID,313,VALID,0.761719,
2014-06-21, 08:59:04,VALID,919.95,VALID,0,VALID,65.1726,VALID,449.964,VALID,24.8688,VALID,283,VALID,1.09648,
2014-06-21, 09:00:04,VALID,919.956,VALID,0,VALID,68.039,VALID,453.831,VALID,24.8316,VALID,354,VALID,0.400391,
2014-06-21, 09:01:04,VALID,919.962,VALID,0,VALID,67.6121,VALID,455.765,VALID,24.8707,VALID,351,VALID,0.665234,
2014-06-21, 09:02:04,VALID,919.982,VALID,0,VALID,64.2654,VALID,459.526,VALID,25.0055,VALID,296,VALID,0.5,
2014-06-21, 09:03:04,VALID,920.009,VALID,0,VALID,65.4089,VALID,463.071,VALID,25.1422,VALID,335,VALID,0.326953,
2014-06-21, 09:04:04,VALID,920.043,VALID,0,VALID,64.5551,VALID,464.468,VALID,25.2984,VALID,335,VALID,0.966406,
2014-06-21, 09:05:04,VALID,920.023,VALID,0,VALID,63.5945,VALID,467.154,VALID,25.357,VALID,293,VALID,0.694531,
2014-06-21, 09:06:04,VALID,920.048,VALID,0,VALID,65.0735,VALID,470.915,VALID,25.4156,VALID,36,VALID,0.903906,
2014-06-21, 09:07:04,VALID,920.055,VALID,0,VALID,62.5273,VALID,472.419,VALID,25.5523,VALID,33,VALID,0.562109,
2014-06-21, 09:08:04,VALID,920.006,VALID,0,VALID,63.1448,VALID,476.931,VALID,25.6694,VALID,29,VALID,0.630859,
2014-06-21, 09:09:04,VALID,919.952,VALID,0,VALID,63.6631,VALID,480.369,VALID,25.5327,VALID,6,VALID,1.27031,
2014-06-21, 09:10:04,VALID,920.024,VALID,0,VALID,62.3138,VALID,483.055,VALID,25.5132,VALID,10,VALID,0.835547,
2014-06-21, 09:11:04,VALID,920.041,VALID,0,VALID,62.9008,VALID,484.452,VALID,25.5523,VALID,339,VALID,0.829687,
2014-06-21, 09:12:04,VALID,920.023,VALID,0,VALID,61.5515,VALID,489.394,VALID,25.4546,VALID,275,VALID,2.02266,
2014-06-21, 09:13:04,VALID,920.04,VALID,0,VALID,64.86,VALID,490.684,VALID,25.2203,VALID,318,VALID,1.67656,
2014-06-21, 09:14:04,VALID,920.008,VALID,0,VALID,63.4726,VALID,494.444,VALID,25.1031,VALID,15,VALID,1.07539,
2014-06-21, 09:15:04,VALID,920.011,VALID,0,VALID,64.1129,VALID,496.163,VALID,25.1031,VALID,7,VALID,1.96641,
2014-06-21, 09:16:04,VALID,920.017,VALID,0,VALID,64.6999,VALID,499.601,VALID,25.1031,VALID,32,VALID,0.758594,
2014-06-21, 09:17:04,VALID,920.04,VALID,0,VALID,65.6224,VALID,504.759,VALID,25.1226,VALID,358,VALID,1.25859,
2014-06-21, 09:18:04,VALID,920.04,VALID,0,VALID,65.3022,VALID,507.122,VALID,25.1226,VALID,8,VALID,2.34766,
2014-06-21, 09:19:04,VALID,920.069,VALID,0,VALID,65.2946,VALID,509.271,VALID,25.1598,VALID,18,VALID,0.741016,
2014-06-21, 09:20:04,VALID,920.057,VALID,0,VALID,65.3251,VALID,512.279,VALID,25.3765,VALID,301,VALID,0.547266,
2014-06-21, 09:21:04,VALID,920.036,VALID,0,VALID,61.7649,VALID,515.073,VALID,25.5523,VALID,274,VALID,1.43281,
2014-06-21, 09:22:04,VALID,920.02,VALID,0,VALID,64.6008,VALID,517.114,VALID,25.4937,VALID,14,VALID,1.30352,
2014-06-21, 09:23:04,VALID,919.993,VALID,0,VALID,62.2757,VALID,520.23,VALID,25.6284,VALID,328,VALID,1.43867,
2014-06-21, 09:24:04,VALID,920.027,VALID,0,VALID,63.2134,VALID,523.238,VALID,25.6304,VALID,243,VALID,0.791016,
2014-06-21, 09:25:04,VALID,920.006,VALID,0,VALID,62.7712,VALID,524.85,VALID,25.5503,VALID,194,VALID,1.07305,
2014-06-21, 09:26:04,VALID,919.999,VALID,0,VALID,63.1295,VALID,528.396,VALID,25.5523,VALID,265,VALID,0.983594,
2014-06-21, 09:27:04,VALID,919.991,VALID,0,VALID,62.2452,VALID,531.082,VALID,25.4351,VALID,265,VALID,1.32227,
2014-06-21, 09:28:04,VALID,920.005,VALID,0,VALID,65.2259,VALID,531.404,VALID,25.2398,VALID,238,VALID,1.06172,
2014-06-21, 09:29:04,VALID,919.994,VALID,0,VALID,64.4484,VALID,533.875,VALID,25.2183,VALID,347,VALID,1.17227,
2014-06-21, 09:30:04,VALID,919.987,VALID,0,VALID,63.3125,VALID,539.462,VALID,25.2769,VALID,329,VALID,1.17109,
2014-06-21, 09:31:04,VALID,920.025,VALID,0,VALID,62.977,VALID,540.644,VALID,25.396,VALID,339,VALID,0.490625,
2014-06-21, 09:32:04,VALID,919.958,VALID,0,VALID,64.4484,VALID,542.255,VALID,25.4351,VALID,241,VALID,0.698047,
2014-06-21, 09:33:04,VALID,919.976,VALID,0,VALID,63.5717,VALID,546.553,VALID,25.4917,VALID,273,VALID,1.12031,
2014-06-21, 09:34:04,VALID,919.975,VALID,0,VALID,63.0075,VALID,548.809,VALID,25.5894,VALID,282,VALID,0.313281,
2014-06-21, 09:35:04,VALID,919.964,VALID,0,VALID,61.986,VALID,551.71,VALID,25.7456,VALID,244,VALID,0.550781,
2014-06-21, 09:36:04,VALID,919.988,VALID,0,VALID,64.5475,VALID,552.785,VALID,25.8413,VALID,10,VALID,0.767187,
2014-06-21, 09:37:04,VALID,919.99,VALID,0,VALID,59.8896,VALID,557.727,VALID,25.7456,VALID,310,VALID,1.26563,
2014-06-21, 09:38:04,VALID,919.982,VALID,0,VALID,61.5438,VALID,560.091,VALID,25.648,VALID,325,VALID,0.65,
2014-06-21, 09:39:04,VALID,920.016,VALID,0,VALID,62.5349,VALID,558.801,VALID,25.6284,VALID,352,VALID,1.18477,
2014-06-21, 09:40:04,VALID,920.01,VALID,0,VALID,64.212,VALID,562.884,VALID,25.6089,VALID,351,VALID,0.989453,
2014-06-21, 09:41:04,VALID,920.005,VALID,0,VALID,63.9071,VALID,566.537,VALID,25.7066,VALID,22,VALID,1.07109,
2014-06-21, 09:42:04,VALID,920.012,VALID,0,VALID,63.7013,VALID,567.397,VALID,25.9624,VALID,20,VALID,0.634766,
2014-06-21, 09:43:04,VALID,920.002,VALID,0,VALID,61.6811,VALID,573.413,VALID,26.1753,VALID,2,VALID,1.8332,
2014-06-21, 09:44:04,VALID,920.029,VALID,0,VALID,61.1093,VALID,575.992,VALID,26.312,VALID,334,VALID,0.350391,
2014-06-21, 09:45:04,VALID,920.02,VALID,0,VALID,59.7066,VALID,575.347,VALID,26.4312,VALID,334,VALID,0.293359,
2014-06-21, 09:46:04,VALID,919.993,VALID,0,VALID,59.333,VALID,578.678,VALID,26.3706,VALID,301,VALID,0.796484,
2014-06-21, 09:47:04,VALID,919.981,VALID,0,VALID,60.6443,VALID,582.331,VALID,26.2925,VALID,332,VALID,0.515234,
2014-06-21, 09:48:04,VALID,919.954,VALID,0,VALID,59.2416,VALID,583.513,VALID,26.3706,VALID,246,VALID,0.803516,
2014-06-21, 09:49:04,VALID,919.957,VALID,0,VALID,61.9326,VALID,586.736,VALID,26.3902,VALID,220,VALID,0.819141,
2014-06-21, 09:50:04,VALID,919.927,VALID,0,VALID,60.7891,VALID,590.389,VALID,26.3686,VALID,231,VALID,0.665625,
2014-06-21, 09:51:04,VALID,919.943,VALID,0,VALID,61.216,VALID,591.034,VALID,26.3882,VALID,105,VALID,1.08164,
2014-06-21, 09:52:04,VALID,919.918,VALID,0,VALID,59.0281,VALID,594.687,VALID,26.4683,VALID,324,VALID,1.0875,
2014-06-21, 09:53:04,VALID,919.954,VALID,0,VALID,60.7586,VALID,598.232,VALID,26.3296,VALID,318,VALID,1.47617,
2014-06-21, 09:54:04,VALID,919.934,VALID,0,VALID,61.8488,VALID,600.274,VALID,26.275,VALID,17,VALID,1.53398,
2014-06-21, 09:55:04,VALID,919.944,VALID,0,VALID,61.5133,VALID,601.993,VALID,26.2359,VALID,324,VALID,0.949609,
2014-06-21, 09:56:04,VALID,919.95,VALID,0,VALID,61.521,VALID,606.505,VALID,26.2339,VALID,21,VALID,1.7082,
2014-06-21, 09:57:04,VALID,919.99,VALID,0,VALID,61.8411,VALID,604.786,VALID,26.3706,VALID,303,VALID,0.578516,
2014-06-21, 09:58:04,VALID,920.016,VALID,0,VALID,62.5654,VALID,608.009,VALID,26.5855,VALID,355,VALID,0.977344,
2014-06-21, 09:59:04,VALID,920.004,VALID,0,VALID,60.9263,VALID,611.233,VALID,26.7809,VALID,1,VALID,2.10898,
2014-06-21, 10:00:04,VALID,919.977,VALID,0,VALID,61.0864,VALID,614.349,VALID,26.8395,VALID,12,VALID,1.19375,
2014-06-21, 10:01:04,VALID,919.965,VALID,0,VALID,59.5465,VALID,614.349,VALID,26.6246,VALID,39,VALID,2.33711,
2014-06-21, 10:02:04,VALID,919.974,VALID,0,VALID,60.5299,VALID,619.506,VALID,26.4272,VALID,338,VALID,1.45352,
2014-06-21, 10:03:04,VALID,919.994,VALID,0,VALID,62.6492,VALID,618.216,VALID,26.1948,VALID,309,VALID,0.676953,
2014-06-21, 10:04:04,VALID,919.94,VALID,0,VALID,63.7775,VALID,624.233,VALID,26.2339,VALID,35,VALID,0.855859,
2014-06-21, 10:05:04,VALID,919.96,VALID,0,VALID,61.1093,VALID,625.63,VALID,26.312,VALID,358,VALID,1.04492,
2014-06-21, 10:06:04,VALID,919.947,VALID,0,VALID,59.8743,VALID,629.283,VALID,26.3902,VALID,317,VALID,1.01523,
2014-06-21, 10:07:04,VALID,919.942,VALID,0,VALID,61.6582,VALID,632.076,VALID,26.5074,VALID,16,VALID,1.16094,
2014-06-21, 10:08:04,VALID,919.935,VALID,0,VALID,60.1411,VALID,634.655,VALID,26.605,VALID,84,VALID,0.830469,
2014-06-21, 10:09:04,VALID,919.936,VALID,0,VALID,59.4779,VALID,632.076,VALID,26.7418,VALID,55,VALID,0.696484,
2014-06-21, 10:10:04,VALID,919.935,VALID,0,VALID,60.4461,VALID,633.795,VALID,26.859,VALID,349,VALID,0.875781,
2014-06-21, 10:11:04,VALID,919.884,VALID,0,VALID,58.1819,VALID,644.325,VALID,26.7418,VALID,356,VALID,2.2543,
2014-06-21, 10:12:04,VALID,919.915,VALID,0,VALID,59.7142,VALID,638.738,VALID,26.6266,VALID,341,VALID,1.04023,
2014-06-21, 10:13:04,VALID,919.954,VALID,0,VALID,59.8667,VALID,643.895,VALID,26.605,VALID,16,VALID,1.98828,
2014-06-21, 10:14:04,VALID,919.894,VALID,0,VALID,59.9658,VALID,645.184,VALID,26.564,VALID,322,VALID,0.709766,
2014-06-21, 10:15:04,VALID,919.84,VALID,0,VALID,58.0676,VALID,650.556,VALID,26.4878,VALID,11,VALID,4.05352,
2014-06-21, 10:16:04,VALID,919.887,VALID,0,VALID,62.7102,VALID,648.407,VALID,26.0972,VALID,2,VALID,1.86602,
2014-06-21, 10:17:04,VALID,919.806,VALID,0,VALID,63.6174,VALID,653.565,VALID,25.9604,VALID,14,VALID,3.33086,
2014-06-21, 10:18:04,VALID,919.859,VALID,0,VALID,62.4815,VALID,655.713,VALID,25.8042,VALID,341,VALID,1.26172,
2014-06-21, 10:19:04,VALID,919.945,VALID,0,VALID,62.5196,VALID,656.465,VALID,25.8237,VALID,28,VALID,1.49063,
2014-06-21, 10:20:04,VALID,919.947,VALID,0,VALID,63.3811,VALID,654.424,VALID,25.8999,VALID,27,VALID,1.9957,